Location: Wien
(48.2082°N, 16.3738°E)
Time: 11:01:32
(UTC+02:00)

Transit 4A - Pass Details

Date: 29 February 2024
Orbit: 871 x 971 km, 66.8° (Epoch: 24 April)

Event Time Altitude Azimuth Distance (km) Brightness Sun altitude
Exits shadow 03:52:44 14° 331° (NNW) 2,305 9.9 -27.8°
Maximum altitude 03:53:52 15° 344° (NNW) 2,258 9.9 -27.6°
Drops below altitude 10° 03:57:06 10° 17° (NNE) 2,568 10.6 -27.1°
Sets 04:00:52 0° 41° (NE) 3,492 11.8 -26.5°
